Overview Statistics Trail Chart Weather Telemetry Raw packets
 

This is the latest recevied weather packets stored in our database for station/object KY0TEQ-13. If no packets are shown the sender has not sent any weather packets the latest 10 day(s).

<< 60 61 62 63 64 65 66 >>
Time Temp. Humidity Pressure Rain* Wind** Luminosity Snow
1788267314 10° C 80% 1310.8 hPa 0 mm - 8 W/m² -
1788267009 10.56° C 79% 1310.6 hPa 0 mm - 5 W/m² -
1788266704 10.56° C 78% 1311.1 hPa 0 mm - 3 W/m² -
1788266404 11.11° C 77% 1311 hPa 0 mm - 2 W/m² -
1788266099 11.11° C 78% 1310.8 hPa 0 mm - 1 W/m² -
1788265797 10.56° C 78% 1310.7 hPa 0 mm - 0 W/m² -
1788265497 10.56° C 79% 1310.8 hPa 0 mm - 0 W/m² -
1788265196 10.56° C 80% 1310.7 hPa 0 mm - 0 W/m² -
1788264891 9.44° C 82% 1310.6 hPa 0 mm - 0 W/m² -
1788264581 10.56° C 79% 1310.7 hPa 0 mm - 0 W/m² -
1788264281 11.11° C 78% 1310.6 hPa 0 mm - 0 W/m² -
1788263976 11.11° C 78% 1310.6 hPa 0 mm - 0 W/m² -
1788263676 11.11° C 78% 1310.5 hPa 0 mm - 0 W/m² -
1788263374 11.11° C 78% 1310.5 hPa 0 mm - 0 W/m² -
1788263069 11.11° C 78% 1310.5 hPa 0 mm - 0 W/m² -
1788262767 11.11° C 77% 1310.8 hPa 0 mm - 0 W/m² -
1788262466 11.11° C 77% 1310.6 hPa 0 mm - 0 W/m² -
1788262162 11.11° C 76% 1310.6 hPa 0 mm - 0 W/m² -
1788261857 11.67° C 76% 1310.4 hPa 0 mm - 0 W/m² -
1788261552 11.11° C 79% 1310.2 hPa 0 mm - 0 W/m² -
1788261250 10° C 81% 1310.4 hPa 0 mm - 0 W/m² -
1788260949 10.56° C 80% 1310.4 hPa 0 mm - 0 W/m² -
1788260645 10.56° C 79% 1310.2 hPa 0 mm - 0 W/m² -
1788260340 10.56° C 80% 1310.4 hPa 0 mm - 0 W/m² -
1788260036 10.56° C 80% 1310.4 hPa 0 mm - 0 W/m² -

* Rain latest hour (hover to see other rain measurements)
** Current wind speed in m/s (hover to see current wind gust speed)